カタログに戻る

COSMOS 374

運用中軍事UNKNOWN
NORAD 4594·PAYLOAD·🇷🇺 Russia

打ち上げ Oct 23, 1970 から Baikonur Cosmodrome

Loading…

次のパス (今後24時間)

TLE

最新Source: Space-Track

元期: Sep 14, 2026, 10:12 UTC

1 04594U 70089A   26257.42526064  .00000191  00000-0  98718-4 0  9995
2 04594  62.9280 264.3999 0982025  67.4189 302.7652 12.96923805680480

AllMySatでCOSMOS 374をリアルタイム追跡

Download on the App Store